User: anonymous   Login
Location: Unspecified
(0.0000°N, 0.0000°E)
Time: 06:21:21
(UTC+00:00)
Language:

DSP F14 - Orbit

View from above orbital plane
View from above orbital plane
View from above satellite
View from above satellite

Ground track
Ground track

The orbit data is extracted from the following two-line orbital elements,

1 20066U 89046A   18270.93733405 0.00000000  00000-0  00000-0 0    06
2 20066  14.6845   3.0249 0003209 313.7563  46.2291  0.98814235    08
Epoch (UTC): 27 September 2018 22:29:45
Eccentricity: 0.0003209
inclination: 14.6845°
perigee height: 36186 km
apogee height: 36213 km
right ascension of ascending node: 3.0249°
argument of perigee: 313.7563°
revolutions per day: 0.98814235
mean anomaly at epoch: 46.2291°
orbit number at epoch: 0

The dashed part of the orbit path shows where the satellite is in the earth's shadow,  

DLR